This is the latest recevied weather packets stored in our database for station/object K7DC. If no packets are shown the sender has not sent any weather packets the latest 10 day(s).
| Time | Temp. | Humidity | Pressure | Rain* | Wind** | Luminosity | Snow |
|---|---|---|---|---|---|---|---|
| 1788178304 | 22.22° C | 79% | 1017.2 hPa | 0 mm | - | 0 W/m² | - |
| 1788177999 | 22.22° C | 79% | 1017.1 hPa | 0 mm | - | 0 W/m² | - |
| 1788177693 | 22.22° C | 78% | 1017 hPa | 0 mm | - | 0 W/m² | - |
| 1788177390 | 22.22° C | 77% | 1017 hPa | 0 mm | - | 0 W/m² | - |
| 1788177095 | 22.22° C | 77% | 1016.9 hPa | 0 mm | - | 0 W/m² | - |
| 1788176784 | 22.78° C | 75% | 1016.5 hPa | 0 mm | - | 0 W/m² | - |
| 1788176479 | 22.78° C | 72% | 1016.5 hPa | 0 mm | - | 0 W/m² | - |
| 1788176178 | 22.78° C | 71% | 1016.6 hPa | 0 mm | - | 0 W/m² | - |
| 1788175874 | 23.33° C | 69% | 1016.1 hPa | 0 mm | - | 0 W/m² | - |
| 1788175573 | 23.89° C | 67% | 1016.3 hPa | 0 mm | - | 0 W/m² | - |
| 1788175268 | 23.89° C | 67% | 1016 hPa | 0 mm | - | 0 W/m² | - |
| 1788174964 | 24.44° C | 67% | 1016 hPa | 0 mm | - | 0 W/m² | - |
| 1788174660 | 25° C | 65% | 1015.8 hPa | 0 mm | - | 0 W/m² | - |
| 1788174355 | 25.56° C | 62% | 1015.8 hPa | 0 mm | - | 0 W/m² | - |
| 1788174062 | 25.56° C | 59% | 1015.5 hPa | 0 mm | - | 0 W/m² | - |
| 1788173749 | 26.11° C | 58% | 1015.7 hPa | 0 mm | - | 0 W/m² | - |
| 1788173444 | 27.22° C | 55% | 1015.7 hPa | 0 mm | - | 0 W/m² | - |
| 1788173140 | 27.22° C | 56% | 1015.4 hPa | 0 mm | - | 0 W/m² | - |
| 1788172836 | 26.67° C | 57% | 1014.8 hPa | 0 mm | - | 0 W/m² | - |
| 1788172531 | 26.11° C | 58% | 1014.5 hPa | 0 mm | - | 0 W/m² | - |
| 1788172227 | 25.56° C | 58% | 1014.6 hPa | 0 mm | - | 0 W/m² | - |
| 1788171921 | 26.11° C | 57% | 1014.3 hPa | 0 mm | - | 0 W/m² | - |
| 1788171616 | 26.11° C | 57% | 1014.3 hPa | 0 mm | - | 0 W/m² | - |
| 1788171311 | 26.11° C | 58% | 1014.4 hPa | 0 mm | - | 0 W/m² | - |
| 1788171007 | 26.11° C | 58% | 1014.1 hPa | 0 mm | - | 0 W/m² | - |
* Rain latest hour (hover to see other rain measurements)
** Current wind speed in m/s (hover to see current wind gust speed)